HST 1 20580U 90037B 24354.19339276 .00008128 00000-0 33891-3 0 9998 2 20580 28.4665 182.0497 0001773 270.5323 89.5067 15.21838102705209 ISS (ZARYA) 1 25544U 98067A 24354.45099304 .00016611 00000-0 29048-3 0 9993 2 25544 51.6388 117.4792 0007526 359.4927 77.2533 15.50745505487286 CXO 1 25867U 99040B 24352.96810518 .00000410 00000-0 00000-0 0 9999 2 25867 45.4209 139.5472 8685624 305.3692 359.7996 0.37804484 15262